Вернуться в каталог

STARLINK-5070

АктивенСвязьVLEO
NORAD 55654·PAYLOAD·🇺🇸 United States

Запущен Feb 17, 2023 с Vandenberg Space Force Base

Loading…

Ближайшие Пролёты (ближайшие 24 часа)

TLE

СвежийSource: CelesTrak SupGP

Эпоха: Sep 14, 2026, 20:57 UTC

1 55654C 23021AC  26257.87340278  .00034754  00000+0  29139-2 0  2579
2 55654  70.0010  67.6177 0002792 269.4648 149.6455 14.98295303    17

Отслеживайте STARLINK-5070 в реальном времени с AllMySat

Download on the App Store